Wind_Speed
35 35 35 35 35 34 33 32 31 30 28 27 27 26 26 25 24 23 22 22 22 21 20 20 19 19 18 17 15 15 15 14 13 12 13 13 12 11 11 11 10 10
35 35 35 35 34 33 32 32 31 30 28 27 27 26 23 22 21 22 22 22 22 22 21 21 20 20 19 17 16 16 16 15 15 14 14 13 13 12 12 11 10 10
34 35 34 34 34 33 31 30 29 27 26 26 26 25 23 20 19 19 19 20 22 23 23 22 21 20 19 18 17 16 15 15 15 15 15 14 14 14 13 12 11 11
33 34 34 33 33 32 30 29 28 27 25 24 25 25 23 21 19 18 18 19 21 22 22 22 21 20 19 17 17 16 15 15 15 15 15 15 14 14 13 11 11 11
33 34 34 33 32 32 30 29 29 28 26 25 24 25 24 23 21 20 19 20 21 21 21 21 20 19 18 17 16 15 15 15 15 15 15 15 15 14 12 11 11 12
32 33 33 32 32 31 30 29 29 29 28 26 25 25 25 24 23 21 20 20 20 21 21 20 19 18 17 16 16 15 15 15 15 15 15 15 14 13 11 11 12 12
31 32 33 33 32 32 31 30 29 28 28 26 25 25 24 23 22 21 20 19 19 19 20 19 18 17 16 16 16 15 15 14 14 14 15 15 14 12 11 11 12 12
29 31 32 32 31 31 31 30 29 29 27 26 25 24 23 22 21 20 19 19 18 18 18 18 17 17 16 17 17 16 16 15 14 14 15 15 14 13 12 12 12 13
30 31 31 31 31 31 32 31 30 29 27 26 25 23 22 21 20 19 19 18 18 18 18 18 18 17 17 17 16 16 15 14 14 15 15 15 15 14 14 13 13 13
28 25 24 26 29 31 32 32 32 31 29 27 25 23 22 21 20 19 18 17 17 17 18 18 18 17 17 16 16 16 15 15 14 14 15 16 16 15 15 15 14 14
27 24 23 24 27 29 30 28 26 26 27 26 24 22 21 19 18 17 16 16 17 17 17 17 17 17 17 17 17 17 16 16 15 14 14 16 17 17 16 16 15 14
31 30 29 28 28 25 22 20 18 17 16 16 18 18 17 16 16 16 15 15 15 15 15 15 15 15 15 15 16 17 16 16 16 15 15 16 19 19 17 15 14 13
32 30 26 24 23 19 17 19 19 17 15 15 17 20 20 20 18 15 14 13 12 11 12 12 12 14 15 15 15 16 16 16 16 15 15 16 19 19 16 13 13 12
30 28 25 23 23 23 23 21 17 17 19 19 19 19 18 17 15 12 11 11 10 10 10 11 12 14 16 16 16 17 17 17 16 12 11 14 18 18 15 13 13 13
25 25 26 24 24 25 23 17 14 18 21 18 16 15 14 14 13 13 13 12 11 10 11 12 13 15 15 16 16 15 15 15 14 12 12 14 16 16 14 14 14 14
22 23 23 22 23 24 21 15 16 21 21 19 18 17 13 12 13 15 15 14 13 12 12 14 15 15 14 14 14 13 12 12 12 14 16 15 13 13 14 14 15 15
20 20 19 19 21 22 19 15 16 19 19 18 18 16 14 14 15 16 16 15 14 14 15 16 16 14 13 13 13 13 13 12 12 15 16 14 11 12 12 13 14 14
18 17 17 18 18 18 16 14 15 16 16 15 14 14 14 14 14 15 14 14 14 16 17 18 17 15 14 14 13 13 14 14 13 14 13 12 11 11 11 12 13 12
16 14 16 16 16 16 14 13 14 14 14 13 11 11 11 11 12 12 13 15 17 18 18 17 16 15 13 11 11 11 13 14 13 11 10 11 11 10 10 10 9 9
14 15 16 15 14 14 14 14 15 15 14 11 9 9 9 9 11 13 15 17 17 16 14 13 13 11 9 8 8 10 11 12 11 9 8 9 9 9 8 8 8 7
16 17 17 13 12 13 14 15 15 14 12 9 8 8 8 9 13 15 16 14 13 11 10 9 9 8 7 7 7 8 8 9 8 7 6 6 7 7 7 8 8 8
19 20 18 14 13 14 17 16 13 12 11 8 7 7 8 11 14 15 13 11 10 10 10 10 8 7 7 7 7 7 8 7 7 7 7 7 7 7 8 8 9 11
18 19 18 15 14 15 14 12 10 10 9 8 7 8 9 11 12 12 11 10 11 12 11 10 8 7 7 8 9 9 9 9 8 7 7 6 6 7 8 9 10 10
17 18 16 14 13 12 11 9 8 8 7 7 7 7 7 8 9 10 9 9 10 11 9 7 8 8 8 9 9 8 8 7 6 6 5 6 7 8 10 10 10 8
16 17 15 13 12 11 10 9 8 7 6 5 5 5 5 5 6 8 8 8 8 6 5 6 8 8 8 9 8 6 5 5 5 6 7 8 10 11 12 12 11 9
16 15 13 12 11 10 8 7 7 6 5 5 5 4 3 3 3 5 5 5 4 3 4 5 8 10 10 9 7 5 5 6 6 7 8 9 10 11 10 10 10 10
Wind_Direction
219 221 222 224 226 228 229 231 233 238 244 246 243 241 241 242 244 248 247 239 235 238 240 242 245 249 254 254 251 249 250 252 251 251 254 256 258 259 265 271 272 270
221 223 225 227 230 232 232 232 233 236 244 246 243 242 242 242 242 245 247 241 237 240 243 246 250 253 255 254 251 250 252 255 254 252 253 256 257 260 267 274 270 267
222 225 226 229 231 232 232 231 231 235 243 246 242 239 238 238 239 240 243 242 241 243 246 248 251 252 253 253 253 253 254 258 259 257 256 257 258 260 268 272 266 265
224 226 229 231 234 234 234 233 232 235 240 242 240 237 236 237 238 239 240 242 243 245 247 248 250 251 251 252 252 253 257 261 262 261 259 257 257 261 267 267 263 267
226 228 231 234 236 236 236 236 235 236 238 240 239 237 237 238 239 239 240 242 244 245 246 247 248 250 251 252 253 255 261 266 267 263 259 258 259 262 265 263 263 270
227 230 233 235 237 236 237 239 238 238 239 240 240 238 238 239 239 239 241 243 244 245 245 246 248 251 254 255 256 258 264 270 270 265 261 260 261 260 261 262 264 272
228 230 233 236 237 237 238 240 240 241 243 243 243 241 241 240 239 240 243 245 246 246 246 247 250 255 257 256 256 259 263 268 268 266 264 263 261 258 259 261 263 270
236 231 233 235 236 236 238 241 242 244 246 246 245 244 244 242 242 244 247 249 249 250 250 251 255 260 260 258 258 259 261 263 265 266 266 264 261 261 264 265 265 269
241 236 233 232 233 236 238 241 243 246 247 247 246 246 246 246 248 249 251 251 253 255 256 258 261 263 263 260 258 256 256 259 263 266 267 265 262 267 272 271 271 273
238 240 239 237 236 237 239 242 244 245 246 246 246 247 247 248 249 250 252 254 256 259 261 264 265 263 262 260 256 255 254 256 261 266 269 268 266 269 274 275 275 276
234 239 244 245 244 242 241 243 245 245 246 246 245 246 247 248 248 249 253 256 258 262 264 265 265 263 262 260 257 254 252 253 256 261 267 271 272 274 274 274 276 276
229 232 237 240 244 245 243 244 250 252 253 250 246 245 245 247 251 254 258 261 261 262 262 262 263 264 263 260 255 252 252 256 261 264 265 269 274 276 274 272 273 272
230 230 231 235 240 244 247 247 248 252 262 264 256 249 245 247 250 249 251 257 258 257 256 255 256 258 258 256 254 254 258 261 263 265 266 267 270 271 270 269 269 268
236 233 233 236 239 245 249 244 237 242 250 255 253 248 244 244 240 230 232 244 248 248 249 247 246 248 249 251 254 257 260 259 255 254 261 266 267 265 263 266 267 267
232 234 237 240 241 248 249 236 225 233 237 239 243 242 242 240 230 221 227 236 237 242 247 245 244 244 243 246 250 253 257 256 247 238 239 246 251 255 259 265 267 266
226 233 240 245 250 255 253 238 231 233 231 234 241 242 242 242 234 230 232 234 234 238 243 242 241 240 240 239 238 244 251 247 237 235 233 229 233 247 259 266 267 267
228 237 244 251 256 255 249 241 238 234 231 235 240 241 243 246 243 236 233 232 233 236 239 240 239 240 240 235 229 234 243 237 229 234 234 226 227 242 256 264 268 269
234 238 243 246 249 246 240 238 239 235 232 235 239 242 245 244 240 233 230 232 233 235 240 241 241 242 240 235 230 230 235 233 227 228 228 225 228 236 249 262 268 267
236 230 237 242 241 241 240 237 236 235 234 235 236 237 236 237 235 229 226 228 231 236 239 240 239 238 235 234 235 233 229 226 220 216 218 226 229 230 239 254 259 259
229 226 231 233 236 243 247 239 232 232 232 229 225 220 220 228 231 228 226 227 230 232 232 231 231 229 228 232 233 228 220 214 212 214 222 231 231 225 229 243 250 253
225 226 225 221 226 238 239 230 226 231 236 238 239 232 228 231 231 230 230 227 222 217 216 221 224 221 221 222 212 204 201 201 207 213 216 221 226 226 231 242 249 255
223 224 221 212 208 215 219 218 220 232 242 248 249 235 226 227 228 228 225 214 203 203 207 210 210 208 202 190 179 180 184 187 192 190 187 195 210 225 236 246 252 257
218 221 219 207 196 201 208 212 217 229 231 222 214 210 215 222 222 220 217 207 201 206 207 197 187 183 177 166 165 175 179 179 182 184 190 205 223 240 252 257 260 261
211 212 210 202 193 189 189 194 205 214 213 203 198 203 216 223 217 209 207 205 205 208 203 181 168 170 173 171 172 177 181 184 195 213 231 248 262 269 273 271 263 255
203 203 201 196 190 181 175 181 187 190 194 198 200 205 212 217 209 197 193 196 203 203 185 169 171 176 181 183 182 188 205 221 239 258 269 277 280 277 275 267 249 235
196 199 197 194 187 177 170 174 176 171 170 175 178 181 184 186 183 174 173 180 186 180 173 178 186 189 188 189 192 208 237 256 270 277 280 281 277 271 267 254 231 221
Height
800 802 803 805 807 808 810 811 813 814 815 816 816 818 819 820 821 822 823 824 825 826 827 828 829 829 830 831 832 832 833 834 834 835 835 835 836 836 836 836 836 836
798 800 802 803 804 806 807 809 810 812 812 813 814 815 817 818 819 820 821 822 823 824 825 826 827 828 828 829 830 831 832 832 833 833 833 834 834 835 835 835 835 835
797 799 800 801 802 803 805 806 808 810 810 811 812 814 816 817 818 819 819 820 821 822 824 824 825 826 827 828 828 829 830 831 831 832 832 832 833 833 833 834 834 834
795 797 799 800 801 802 804 805 806 807 808 809 810 812 814 815 816 817 818 819 820 821 822 823 824 825 826 826 827 828 828 829 830 830 831 831 831 832 832 833 833 833
794 795 797 799 800 801 802 803 804 805 806 807 809 810 812 814 815 816 817 818 819 820 821 822 823 824 825 825 826 826 827 827 828 829 829 829 830 831 831 832 832 832
792 794 795 797 798 800 800 801 803 804 805 806 807 809 811 812 813 814 815 816 817 819 820 821 822 822 823 824 824 825 826 826 827 827 828 828 829 829 830 830 831 831
790 791 793 795 796 798 799 800 801 802 803 805 806 808 809 811 812 813 814 815 816 817 818 819 820 821 822 822 823 824 824 825 825 826 827 827 827 828 828 829 829 829
791 790 791 793 794 796 797 798 800 801 802 804 805 806 808 809 810 811 813 813 814 815 816 818 819 819 820 821 821 822 823 823 824 825 825 826 826 826 826 827 827 828
791 789 789 790 792 793 794 796 797 799 800 802 803 805 806 807 809 810 811 812 813 814 815 816 817 817 818 819 819 820 821 821 822 823 824 824 824 825 825 825 825 825
788 788 789 790 790 791 792 793 795 796 798 799 801 802 804 805 807 808 809 810 811 812 813 813 814 815 816 817 818 818 819 819 820 821 822 822 823 823 823 823 823 823
785 786 788 789 789 789 790 791 793 794 796 797 799 800 802 803 805 806 808 808 809 810 810 811 812 813 814 815 816 816 817 817 818 819 820 821 821 821 821 821 821 821
781 781 782 785 786 787 788 790 793 795 796 798 798 799 800 801 803 806 807 807 807 807 808 808 809 811 811 812 813 814 815 816 816 816 817 818 820 820 820 819 819 819
777 779 780 782 784 786 786 788 791 794 796 797 797 796 796 797 799 802 804 804 804 804 805 806 807 808 809 809 810 812 813 813 813 813 813 815 817 818 818 817 817 817
774 776 778 779 781 783 784 785 787 790 792 793 793 792 793 795 796 798 799 800 801 801 802 804 804 805 805 806 807 808 809 809 809 808 809 812 815 816 815 815 815 815
772 774 775 777 779 780 781 783 785 786 788 788 789 790 791 792 794 795 796 797 798 799 800 801 801 801 802 803 804 804 805 805 805 805 806 808 811 812 813 813 813 813
770 771 773 776 777 778 779 781 782 783 784 785 786 787 787 788 790 791 793 794 795 796 797 798 798 798 799 800 801 801 802 802 803 802 802 803 805 807 809 810 810 811
768 769 770 773 774 775 777 778 778 780 781 782 783 783 784 785 787 788 789 790 792 793 794 794 795 796 797 798 799 799 799 799 800 801 802 802 803 804 806 807 808 809
768 767 768 770 772 773 774 775 776 778 779 780 780 781 781 782 783 785 787 788 789 791 791 792 793 794 795 796 797 797 797 797 798 799 801 802 802 802 804 805 806 807
767 766 767 769 772 773 773 774 775 776 777 777 777 779 780 781 782 783 785 787 788 789 790 790 791 792 793 794 795 795 796 796 797 798 799 800 799 800 801 803 804 804
766 766 767 769 772 774 774 774 774 774 774 775 776 777 778 779 781 783 784 785 787 788 788 789 789 790 792 792 793 793 794 795 796 797 797 797 797 798 800 801 802 802
765 766 767 768 772 776 776 775 774 773 772 773 773 774 775 778 781 783 784 784 785 786 787 788 788 789 790 791 791 792 793 794 795 796 796 796 796 797 798 800 800 801
764 766 766 767 771 775 776 774 773 772 771 771 771 772 775 777 780 782 782 783 784 785 785 786 788 789 790 790 791 791 792 793 794 795 796 796 796 797 798 799 799 800
762 764 766 767 768 771 772 771 771 771 772 772 772 774 775 777 778 779 780 782 783 784 784 785 787 789 789 790 791 792 793 793 794 795 795 796 796 797 797 798 798 798
760 762 764 765 765 766 767 768 769 771 772 772 773 774 775 776 777 778 779 781 782 783 783 784 786 788 789 791 792 793 793 794 794 794 794 795 795 796 796 796 797 797
759 760 761 762 763 763 764 766 767 769 770 772 773 774 775 776 777 777 778 780 781 782 783 784 786 788 789 791 792 793 794 794 793 793 793 794 794 794 794 794 794 795
757 759 760 761 761 762 763 765 766 767 768 770 771 772 774 775 776 777 778 779 780 781 783 784 786 787 789 791 792 793 793 793 793 793 792 792 792 792 792 792 792 793